Facebook Twitter

Wetterstation Reutte

Messwerte
  Temperatur Wetter Niederschlag Luftdruck Wind
Mi, 09:00 Uhr 0° - 0 mm 1035.8 hPa 4 km/h S
Mi, 08:00 Uhr -3° - 0 mm 1036.9 hPa 4 km/h SW
Mi, 07:00 Uhr -3° - 0.1 mm 1036.5 hPa 4 km/h SO
Mi, 06:00 Uhr -3° - 0 mm 1035.6 hPa 4 km/h SO
Mi, 05:00 Uhr -3° - 0 mm 1035.4 hPa 4 km/h SO
Mi, 04:00 Uhr -3° - 0 mm 1035.5 hPa 4 km/h SO
Mi, 03:00 Uhr -3° - 0 mm 1035.4 hPa 4 km/h S
Mi, 02:00 Uhr -3° - 0 mm 1035.6 hPa 4 km/h SO
Mi, 01:00 Uhr -3° - 0.1 mm 1035.3 hPa 4 km/h S
Mi, 00:00 Uhr -2° - - 1034.7 hPa 0 km/h S
Di, 23:00 Uhr -2° - 0 mm 1034 hPa 0 km/h S
Di, 22:00 Uhr 0° - 0.1 mm 1033 hPa 4 km/h SO
Di, 21:00 Uhr 1° - 0 mm 1032.3 hPa 0 km/h SO
Di, 20:00 Uhr 1° - 0.1 mm 1031.5 hPa 0 km/h SO
Di, 19:00 Uhr 2° - 0.1 mm 1030.5 hPa 11 km/h N
Di, 18:00 Uhr 3° - 0 mm 1029.4 hPa 14 km/h NW
Di, 17:00 Uhr 4° - 0 mm 1028.3 hPa 11 km/h NW
Di, 16:00 Uhr 4° - 0.1 mm 1028.1 hPa 14 km/h NW
Di, 15:00 Uhr 4° - 0 mm 1027.6 hPa 18 km/h N
Di, 14:00 Uhr 5° - 0.1 mm 1027.3 hPa 4 km/h N

Alle Zeitangaben MEZ